,,,PA_Meas_PMT16A,,PR_Meas_QMR101_102,,RH_Meas_QMH101,,SR_Meas_QMS101,,TA_Meas_QMH101,,GenWind,,GenWind,
date,time,status,PA,status,PR,status,RH,status,SR,status,TA,status,DirAvg,status,SpdAvg,
2010-04-15, 00:00:05,VALID,1004.86,VALID,0,VALID,96.1849,VALID,0,VALID,24.2486,VALID,31,VALID,0,
2010-04-15, 00:01:05,VALID,1004.83,VALID,0,VALID,96.1926,VALID,0,VALID,24.2486,VALID,31,VALID,0,
2010-04-15, 00:02:05,VALID,1004.82,VALID,0,VALID,96.2002,VALID,0,VALID,24.2468,VALID,31,VALID,0,
2010-04-15, 00:03:05,VALID,1004.81,VALID,0,VALID,96.2078,VALID,0,VALID,24.2273,VALID,31,VALID,0,
2010-04-15, 00:04:05,VALID,1004.79,VALID,0,VALID,96.2002,VALID,0,VALID,24.2273,VALID,31,VALID,0,
2010-04-15, 00:05:05,VALID,1004.77,VALID,0,VALID,96.2078,VALID,0,VALID,24.2273,VALID,31,VALID,0,
2010-04-15, 00:06:05,VALID,1004.76,VALID,0,VALID,96.2154,VALID,0,VALID,24.2078,VALID,31,VALID,0,
2010-04-15, 00:07:05,VALID,1004.69,VALID,0,VALID,96.2231,VALID,0,VALID,24.2097,VALID,31,VALID,0,
2010-04-15, 00:08:05,VALID,1004.69,VALID,0,VALID,96.2154,VALID,0,VALID,24.1902,VALID,31,VALID,0,
2010-04-15, 00:09:05,VALID,1004.65,VALID,0,VALID,96.2383,VALID,0,VALID,24.1707,VALID,31,VALID,0,
2010-04-15, 00:10:05,VALID,1004.61,VALID,0,VALID,96.2154,VALID,0,VALID,24.13,VALID,31,VALID,0,
2010-04-15, 00:11:05,VALID,1004.6,VALID,0,VALID,96.2154,VALID,0,VALID,24.13,VALID,31,VALID,0,
2010-04-15, 00:12:05,VALID,1004.59,VALID,0,VALID,96.2078,VALID,0,VALID,24.1513,VALID,31,VALID,0,
2010-04-15, 00:13:05,VALID,1004.58,VALID,0,VALID,96.2154,VALID,0,VALID,24.1105,VALID,31,VALID,0,
2010-04-15, 00:14:05,VALID,1004.55,VALID,0,VALID,96.2231,VALID,0,VALID,24.1318,VALID,31,VALID,0,
2010-04-15, 00:15:05,VALID,1004.53,VALID,0,VALID,96.2383,VALID,0,VALID,24.1123,VALID,31,VALID,0,
2010-04-15, 00:16:05,VALID,1004.47,VALID,0,VALID,96.2154,VALID,0,VALID,24.1123,VALID,31,VALID,0,
2010-04-15, 00:17:05,VALID,1004.49,VALID,0,VALID,96.2383,VALID,0,VALID,24.1123,VALID,31,VALID,0,
2010-04-15, 00:18:05,VALID,1004.44,VALID,0,VALID,96.2383,VALID,0,VALID,24.1318,VALID,31,VALID,0,
2010-04-15, 00:19:05,VALID,1004.43,VALID,0,VALID,96.2383,VALID,0,VALID,24.1513,VALID,31,VALID,0,
2010-04-15, 00:20:05,VALID,1004.42,VALID,0,VALID,96.2383,VALID,0,VALID,24.1707,VALID,31,VALID,0,
2010-04-15, 00:21:05,VALID,1004.38,VALID,0,VALID,96.2383,VALID,0,VALID,24.1513,VALID,31,VALID,0,
2010-04-15, 00:22:05,VALID,1004.35,VALID,0,VALID,96.2536,VALID,0,VALID,24.1707,VALID,31,VALID,0,
2010-04-15, 00:23:05,VALID,1004.34,VALID,0,VALID,96.2383,VALID,0,VALID,24.1689,VALID,31,VALID,0,
2010-04-15, 00:24:05,VALID,1004.35,VALID,0,VALID,96.2536,VALID,0,VALID,24.2097,VALID,31,VALID,0,
2010-04-15, 00:25:05,VALID,1004.3,VALID,0,VALID,96.2383,VALID,0.100563,VALID,24.2291,VALID,31,VALID,0,
2010-04-15, 00:26:05,VALID,1004.32,VALID,0,VALID,96.246,VALID,0,VALID,24.2273,VALID,31,VALID,0,
2010-04-15, 00:27:05,VALID,1004.3,VALID,0,VALID,96.246,VALID,0,VALID,24.2681,VALID,31,VALID,0,
2010-04-15, 00:28:05,VALID,1004.26,VALID,0,VALID,96.2841,VALID,0,VALID,24.2486,VALID,31,VALID,0,
2010-04-15, 00:29:05,VALID,1004.25,VALID,0,VALID,96.2917,VALID,0,VALID,24.2291,VALID,31,VALID,0,
2010-04-15, 00:30:05,VALID,1004.23,VALID,0,VALID,96.2917,VALID,0,VALID,24.2078,VALID,30,VALID,0,
2010-04-15, 00:31:05,VALID,1004.2,VALID,0,VALID,96.2994,VALID,0,VALID,24.2078,VALID,30,VALID,0,
2010-04-15, 00:32:05,VALID,1004.2,VALID,0,VALID,96.2994,VALID,0,VALID,24.1689,VALID,30,VALID,0,
2010-04-15, 00:33:05,VALID,1004.2,VALID,0,VALID,96.2994,VALID,0,VALID,24.1884,VALID,30,VALID,0,
2010-04-15, 00:34:05,VALID,1004.17,VALID,0,VALID,96.2765,VALID,0,VALID,24.1689,VALID,30,VALID,0,
2010-04-15, 00:35:05,VALID,1004.15,VALID,0,VALID,96.2765,VALID,0,VALID,24.1494,VALID,30,VALID,0,
2010-04-15, 00:36:05,VALID,1004.13,VALID,0,VALID,96.2994,VALID,0,VALID,24.1494,VALID,30,VALID,0,
2010-04-15, 00:37:05,VALID,1004.11,VALID,0,VALID,96.307,VALID,0,VALID,24.13,VALID,30,VALID,0,
2010-04-15, 00:38:05,VALID,1004.07,VALID,0,VALID,96.2917,VALID,0,VALID,24.1494,VALID,30,VALID,0,
2010-04-15, 00:39:05,VALID,1004.08,VALID,0,VALID,96.2917,VALID,0,VALID,24.1494,VALID,30,VALID,0,
2010-04-15, 00:40:05,VALID,1004.03,VALID,0,VALID,96.2841,VALID,0,VALID,24.1689,VALID,30,VALID,0,
2010-04-15, 00:41:05,VALID,1004.05,VALID,0,VALID,96.2994,VALID,0,VALID,24.1689,VALID,30,VALID,0,
2010-04-15, 00:42:05,VALID,1004.02,VALID,0,VALID,96.2994,VALID,0.100563,VALID,24.1902,VALID,30,VALID,0,
2010-04-15, 00:43:05,VALID,1004.03,VALID,0,VALID,96.307,VALID,0,VALID,24.1513,VALID,30,VALID,0,
2010-04-15, 00:44:05,VALID,1004,VALID,0,VALID,96.3299,VALID,0,VALID,24.1123,VALID,30,VALID,0,
2010-04-15, 00:45:05,VALID,1004.01,VALID,0,VALID,96.3222,VALID,0,VALID,24.0716,VALID,28,VALID,0,
2010-04-15, 00:46:05,VALID,1004.01,VALID,0,VALID,96.3222,VALID,0.100563,VALID,24.0716,VALID,28,VALID,0,
2010-04-15, 00:47:05,VALID,1003.96,VALID,0,VALID,96.3146,VALID,0,VALID,24.0716,VALID,28,VALID,0,
2010-04-15, 00:48:05,VALID,1003.95,VALID,0,VALID,96.3146,VALID,0,VALID,24.0521,VALID,28,VALID,0,
2010-04-15, 00:49:05,VALID,1003.94,VALID,0,VALID,96.3222,VALID,0,VALID,24.0521,VALID,28,VALID,0,
2010-04-15, 00:50:05,VALID,1003.9,VALID,0,VALID,96.3146,VALID,0,VALID,24.0521,VALID,28,VALID,0,
2010-04-15, 00:51:05,VALID,1003.88,VALID,0,VALID,96.3299,VALID,0,VALID,24.0326,VALID,28,VALID,0,
2010-04-15, 00:52:05,VALID,1003.86,VALID,0,VALID,96.3299,VALID,0,VALID,24.0734,VALID,28,VALID,0,
2010-04-15, 00:53:05,VALID,1003.85,VALID,0,VALID,96.3222,VALID,0,VALID,24.0716,VALID,28,VALID,0,
2010-04-15, 00:54:05,VALID,1003.84,VALID,0,VALID,96.3146,VALID,0,VALID,24.0929,VALID,28,VALID,0,
2010-04-15, 00:55:05,VALID,1003.82,VALID,0,VALID,96.307,VALID,0,VALID,24.1318,VALID,28,VALID,0,
2010-04-15, 00:56:05,VALID,1003.83,VALID,0,VALID,96.3375,VALID,0,VALID,24.1105,VALID,28,VALID,0,
2010-04-15, 00:57:05,VALID,1003.85,VALID,0,VALID,96.3451,VALID,0,VALID,24.1123,VALID,28,VALID,0,
2010-04-15, 00:58:05,VALID,1003.85,VALID,0,VALID,96.3528,VALID,0,VALID,24.0716,VALID,28,VALID,0,
2010-04-15, 00:59:05,VALID,1003.85,VALID,0,VALID,96.3604,VALID,0,VALID,24.0734,VALID,28,VALID,0,
2010-04-15, 01:00:05,VALID,1003.85,VALID,0,VALID,96.368,VALID,0.100563,VALID,24.0326,VALID,28,VALID,0,
2010-04-15, 01:01:05,VALID,1003.82,VALID,0,VALID,96.3528,VALID,0,VALID,24.0326,VALID,28,VALID,0,
2010-04-15, 01:02:05,VALID,1003.8,VALID,0,VALID,96.3604,VALID,0.100563,VALID,24.0326,VALID,28,VALID,0,
2010-04-15, 01:03:04,VALID,1003.8,VALID,0,VALID,96.3756,VALID,0.100563,VALID,24.0521,VALID,28,VALID,0,
2010-04-15, 01:04:04,VALID,1003.78,VALID,0,VALID,96.3299,VALID,0.100563,VALID,24.0326,VALID,28,VALID,0,
2010-04-15, 01:05:04,VALID,1003.76,VALID,0,VALID,96.3604,VALID,0.100563,VALID,24.0326,VALID,28,VALID,0,
2010-04-15, 01:06:04,VALID,1003.78,VALID,0,VALID,96.3528,VALID,0.100563,VALID,24.0326,VALID,28,VALID,0,
2010-04-15, 01:07:04,VALID,1003.77,VALID,0,VALID,96.3451,VALID,0.100563,VALID,24.0734,VALID,28,VALID,0,
2010-04-15, 01:08:04,VALID,1003.74,VALID,0,VALID,96.3756,VALID,0.100563,VALID,24.0521,VALID,28,VALID,0,
2010-04-15, 01:09:04,VALID,1003.72,VALID,0,VALID,96.3756,VALID,0,VALID,24.0132,VALID,28,VALID,0,
2010-04-15, 01:10:04,VALID,1003.71,VALID,0,VALID,96.3604,VALID,0,VALID,24.0132,VALID,26,VALID,0,
2010-04-15, 01:11:04,VALID,1003.73,VALID,0,VALID,96.368,VALID,0,VALID,24.015,VALID,23,VALID,0,
2010-04-15, 01:12:04,VALID,1003.72,VALID,0,VALID,96.368,VALID,0,VALID,23.9937,VALID,20,VALID,0.542969,
2010-04-15, 01:13:04,VALID,1003.72,VALID,0,VALID,96.3985,VALID,0,VALID,24.015,VALID,20,VALID,0.461719,
2010-04-15, 01:14:04,VALID,1003.74,VALID,0,VALID,96.3833,VALID,0.100563,VALID,23.953,VALID,19,VALID,0.398828,
2010-04-15, 01:15:04,VALID,1003.69,VALID,0,VALID,96.3756,VALID,0.100563,VALID,23.953,VALID,15,VALID,0.496484,
2010-04-15, 01:16:04,VALID,1003.67,VALID,0,VALID,96.368,VALID,0.100563,VALID,23.9937,VALID,14,VALID,0.490234,
2010-04-15, 01:17:04,VALID,1003.62,VALID,0,VALID,96.3528,VALID,0,VALID,24.0539,VALID,14,VALID,0.373437,
2010-04-15, 01:18:04,VALID,1003.59,VALID,0,VALID,96.3604,VALID,0,VALID,24.0326,VALID,14,VALID,0.325781,
2010-04-15, 01:19:04,VALID,1003.58,VALID,0,VALID,96.368,VALID,0.100563,VALID,24.0521,VALID,14,VALID,0.287891,
2010-04-15, 01:20:04,VALID,1003.59,VALID,0,VALID,96.3985,VALID,0,VALID,24.0521,VALID,14,VALID,0.316406,
2010-04-15, 01:21:04,VALID,1003.56,VALID,0,VALID,96.4062,VALID,0,VALID,24.0132,VALID,14,VALID,0.347656,
2010-04-15, 01:22:04,VALID,1003.58,VALID,0,VALID,96.3833,VALID,0,VALID,24.0345,VALID,14,VALID,0.365625,
2010-04-15, 01:23:04,VALID,1003.57,VALID,0,VALID,96.3985,VALID,0,VALID,24.0132,VALID,14,VALID,0.364453,
2010-04-15, 01:24:04,VALID,1003.57,VALID,0,VALID,96.4138,VALID,0,VALID,23.9937,VALID,14,VALID,0.420312,
2010-04-15, 01:25:04,VALID,1003.58,VALID,0,VALID,96.3985,VALID,0,VALID,24.0132,VALID,14,VALID,0.45,
2010-04-15, 01:26:04,VALID,1003.56,VALID,0,VALID,96.3985,VALID,0.100563,VALID,23.9937,VALID,14,VALID,0.412109,
2010-04-15, 01:27:04,VALID,1003.54,VALID,0,VALID,96.4138,VALID,0,VALID,23.9937,VALID,14,VALID,0.402734,
2010-04-15, 01:28:04,VALID,1003.52,VALID,0,VALID,96.4062,VALID,0,VALID,24.015,VALID,14,VALID,0.540234,
2010-04-15, 01:29:04,VALID,1003.5,VALID,0,VALID,96.4138,VALID,0.100563,VALID,24.015,VALID,14,VALID,0.548047,
2010-04-15, 01:30:04,VALID,1003.49,VALID,0,VALID,96.4214,VALID,0.100563,VALID,23.9937,VALID,14,VALID,0.500781,
2010-04-15, 01:31:04,VALID,1003.48,VALID,0,VALID,96.4214,VALID,0,VALID,23.9742,VALID,14,VALID,0.489453,
2010-04-15, 01:32:04,VALID,1003.44,VALID,0,VALID,96.429,VALID,0.100563,VALID,23.9742,VALID,14,VALID,0.324219,
2010-04-15, 01:33:04,VALID,1003.46,VALID,0,VALID,96.4138,VALID,0,VALID,23.9742,VALID,14,VALID,0.547656,
2010-04-15, 01:34:04,VALID,1003.44,VALID,0,VALID,96.4214,VALID,0.100563,VALID,23.9955,VALID,14,VALID,0.454297,
2010-04-15, 01:35:04,VALID,1003.43,VALID,0,VALID,96.4214,VALID,0.100563,VALID,23.9937,VALID,14,VALID,0.508984,
2010-04-15, 01:36:04,VALID,1003.42,VALID,0,VALID,96.429,VALID,0,VALID,23.9761,VALID,14,VALID,0.49375,
2010-04-15, 01:37:04,VALID,1003.41,VALID,0,VALID,96.4214,VALID,0,VALID,23.9742,VALID,14,VALID,0.482031,
2010-04-15, 01:38:04,VALID,1003.41,VALID,0,VALID,96.4214,VALID,0.100563,VALID,23.9742,VALID,14,VALID,0.485156,
2010-04-15, 01:39:04,VALID,1003.41,VALID,0,VALID,96.429,VALID,0,VALID,23.9548,VALID,14,VALID,0.467578,
2010-04-15, 01:40:04,VALID,1003.4,VALID,0,VALID,96.4214,VALID,0.100563,VALID,23.9742,VALID,14,VALID,0.517187,
2010-04-15, 01:41:04,VALID,1003.39,VALID,0,VALID,96.4214,VALID,0,VALID,23.9937,VALID,14,VALID,0.521094,
2010-04-15, 01:42:04,VALID,1003.38,VALID,0,VALID,96.429,VALID,0,VALID,23.9742,VALID,14,VALID,0.430078,
2010-04-15, 01:43:04,VALID,1003.38,VALID,0,VALID,96.4367,VALID,0,VALID,23.9937,VALID,14,VALID,0.582812,
2010-04-15, 01:44:04,VALID,1003.39,VALID,0,VALID,96.429,VALID,0.100563,VALID,23.9937,VALID,14,VALID,0.523047,
2010-04-15, 01:45:04,VALID,1003.42,VALID,0,VALID,96.4214,VALID,0,VALID,24.015,VALID,14,VALID,0.567969,
2010-04-15, 01:46:04,VALID,1003.41,VALID,0,VALID,96.4367,VALID,0,VALID,24.0132,VALID,14,VALID,0.489844,
2010-04-15, 01:47:04,VALID,1003.38,VALID,0,VALID,96.429,VALID,0,VALID,24.0326,VALID,13,VALID,0.592188,
2010-04-15, 01:48:04,VALID,1003.38,VALID,0,VALID,96.4062,VALID,0,VALID,24.0326,VALID,13,VALID,0.485547,
2010-04-15, 01:49:04,VALID,1003.38,VALID,0,VALID,96.4367,VALID,0,VALID,24.0734,VALID,13,VALID,0.594531,
2010-04-15, 01:50:04,VALID,1003.36,VALID,0,VALID,96.4519,VALID,0,VALID,24.0326,VALID,12,VALID,0.601953,
2010-04-15, 01:51:04,VALID,1003.35,VALID,0,VALID,96.4519,VALID,0.100563,VALID,24.0326,VALID,9,VALID,0.604297,
2010-04-15, 01:52:04,VALID,1003.34,VALID,0,VALID,96.4443,VALID,0.100563,VALID,24.0345,VALID,8,VALID,0.641406,
2010-04-15, 01:53:04,VALID,1003.35,VALID,0,VALID,96.4443,VALID,0,VALID,23.9937,VALID,7,VALID,0.632422,
2010-04-15, 01:54:04,VALID,1003.33,VALID,0,VALID,96.4519,VALID,0.100563,VALID,23.9724,VALID,7,VALID,0.562891,
2010-04-15, 01:55:04,VALID,1003.36,VALID,0,VALID,96.4519,VALID,0.100563,VALID,23.9937,VALID,7,VALID,0.525781,
2010-04-15, 01:56:04,VALID,1003.36,VALID,0,VALID,96.4748,VALID,0.100563,VALID,24.0132,VALID,7,VALID,0.558594,
2010-04-15, 01:57:04,VALID,1003.34,VALID,0,VALID,96.4596,VALID,0,VALID,24.0132,VALID,7,VALID,0.561719,
2010-04-15, 01:58:04,VALID,1003.34,VALID,0,VALID,96.4519,VALID,0.100563,VALID,24.0132,VALID,7,VALID,0.614453,
2010-04-15, 01:59:04,VALID,1003.34,VALID,0,VALID,96.429,VALID,0.100563,VALID,24.0132,VALID,7,VALID,0.514063,
2010-04-15, 02:00:04,VALID,1003.32,VALID,0,VALID,96.4596,VALID,0,VALID,24.0345,VALID,7,VALID,0.513281,
2010-04-15, 02:01:04,VALID,1003.32,VALID,0,VALID,96.4596,VALID,0,VALID,24.015,VALID,7,VALID,0.475781,
2010-04-15, 02:02:04,VALID,1003.29,VALID,0,VALID,96.4596,VALID,0,VALID,24.015,VALID,7,VALID,0.497266,
2010-04-15, 02:03:04,VALID,1003.28,VALID,0,VALID,96.4519,VALID,0,VALID,23.9937,VALID,7,VALID,0.64375,
2010-04-15, 02:04:04,VALID,1003.27,VALID,0,VALID,96.4596,VALID,0,VALID,24.0168,VALID,7,VALID,0.594141,
2010-04-15, 02:05:04,VALID,1003.27,VALID,0,VALID,96.4519,VALID,0,VALID,23.9955,VALID,7,VALID,0.478516,
2010-04-15, 02:06:04,VALID,1003.27,VALID,0,VALID,96.4367,VALID,0,VALID,24.015,VALID,7,VALID,0.466016,
2010-04-15, 02:07:04,VALID,1003.26,VALID,0,VALID,96.4443,VALID,0,VALID,24.0345,VALID,7,VALID,0.471875,
2010-04-15, 02:08:04,VALID,1003.22,VALID,0,VALID,96.4443,VALID,0,VALID,24.0539,VALID,7,VALID,0.451953,
2010-04-15, 02:09:04,VALID,1003.25,VALID,0,VALID,96.4443,VALID,0,VALID,24.0734,VALID,7,VALID,0.367188,
2010-04-15, 02:10:04,VALID,1003.27,VALID,0,VALID,96.4443,VALID,0,VALID,24.0521,VALID,7,VALID,0.515234,
2010-04-15, 02:11:04,VALID,1003.26,VALID,0,VALID,96.4596,VALID,0,VALID,24.0539,VALID,7,VALID,0.483203,
2010-04-15, 02:12:04,VALID,1003.27,VALID,0,VALID,96.4672,VALID,0,VALID,24.0345,VALID,7,VALID,0.50625,
2010-04-15, 02:13:04,VALID,1003.26,VALID,0,VALID,96.4672,VALID,0,VALID,24.0132,VALID,7,VALID,0.480469,
2010-04-15, 02:14:04,VALID,1003.28,VALID,0,VALID,96.4825,VALID,0,VALID,24.0132,VALID,7,VALID,0.543359,
2010-04-15, 02:15:04,VALID,1003.29,VALID,0,VALID,96.4596,VALID,0,VALID,24.0345,VALID,7,VALID,0.548437,
2010-04-15, 02:16:04,VALID,1003.28,VALID,0,VALID,96.4825,VALID,0,VALID,24.0132,VALID,7,VALID,0.516016,
2010-04-15, 02:17:04,VALID,1003.33,VALID,0,VALID,96.4748,VALID,0,VALID,24.0326,VALID,7,VALID,0.585156,
2010-04-15, 02:18:04,VALID,1003.29,VALID,0,VALID,96.4443,VALID,0,VALID,24.0539,VALID,7,VALID,0.555859,
2010-04-15, 02:19:04,VALID,1003.31,VALID,0,VALID,96.4596,VALID,0,VALID,24.0521,VALID,7,VALID,0.651953,
2010-04-15, 02:20:04,VALID,1003.34,VALID,0,VALID,96.4596,VALID,0,VALID,24.0734,VALID,7,VALID,0.484375,
2010-04-15, 02:21:04,VALID,1003.35,VALID,0,VALID,96.4748,VALID,0,VALID,24.0539,VALID,7,VALID,0.623047,
2010-04-15, 02:22:04,VALID,1003.32,VALID,0,VALID,96.4519,VALID,0,VALID,24.0947,VALID,359,VALID,0.702734,
2010-04-15, 02:23:04,VALID,1003.33,VALID,0,VALID,96.4825,VALID,0,VALID,24.0326,VALID,356,VALID,0.780859,
2010-04-15, 02:24:04,VALID,1003.33,VALID,0,VALID,96.4825,VALID,0,VALID,24.0345,VALID,352,VALID,0.517969,
2010-04-15, 02:25:04,VALID,1003.31,VALID,0,VALID,96.4825,VALID,0,VALID,24.015,VALID,352,VALID,0.626953,
2010-04-15, 02:26:04,VALID,1003.3,VALID,0,VALID,96.4748,VALID,0,VALID,24.015,VALID,351,VALID,0.545703,
2010-04-15, 02:27:04,VALID,1003.33,VALID,0,VALID,96.4825,VALID,0,VALID,23.9955,VALID,350,VALID,0.521484,
2010-04-15, 02:28:04,VALID,1003.31,VALID,0,VALID,96.4748,VALID,0,VALID,23.9761,VALID,350,VALID,0.534766,
2010-04-15, 02:29:04,VALID,1003.29,VALID,0,VALID,96.4901,VALID,0,VALID,23.9761,VALID,344,VALID,0.651953,
2010-04-15, 02:30:04,VALID,1003.29,VALID,0,VALID,96.4672,VALID,0,VALID,24.015,VALID,358,VALID,0.745313,
2010-04-15, 02:31:04,VALID,1003.25,VALID,0,VALID,96.4443,VALID,0,VALID,24.0716,VALID,352,VALID,0.643359,
2010-04-15, 02:32:04,VALID,1003.26,VALID,0,VALID,96.4519,VALID,0,VALID,24.1123,VALID,358,VALID,0.553906,
2010-04-15, 02:33:04,VALID,1003.26,VALID,0,VALID,96.4443,VALID,0,VALID,24.13,VALID,358,VALID,0.559766,
2010-04-15, 02:34:04,VALID,1003.27,VALID,0,VALID,96.4367,VALID,0,VALID,24.1318,VALID,358,VALID,0.435156,
2010-04-15, 02:35:04,VALID,1003.25,VALID,0,VALID,96.4748,VALID,0,VALID,24.0929,VALID,358,VALID,0.520703,
2010-04-15, 02:36:04,VALID,1003.22,VALID,0,VALID,96.4901,VALID,0,VALID,24.0345,VALID,358,VALID,0.542188,
2010-04-15, 02:37:04,VALID,1003.24,VALID,0,VALID,96.4977,VALID,0,VALID,24.015,VALID,358,VALID,0.644922,
2010-04-15, 02:38:04,VALID,1003.22,VALID,0,VALID,96.4901,VALID,0,VALID,24.015,VALID,6,VALID,0.721484,
2010-04-15, 02:39:04,VALID,1003.22,VALID,0,VALID,96.4672,VALID,0,VALID,23.9955,VALID,6,VALID,0.585547,
2010-04-15, 02:40:04,VALID,1003.2,VALID,0,VALID,96.4672,VALID,0,VALID,23.9955,VALID,6,VALID,0.525391,
2010-04-15, 02:41:04,VALID,1003.21,VALID,0,VALID,96.4825,VALID,0,VALID,24.015,VALID,6,VALID,0.426562,
2010-04-15, 02:42:04,VALID,1003.16,VALID,0,VALID,96.4748,VALID,0,VALID,24.015,VALID,6,VALID,0.432813,
2010-04-15, 02:43:04,VALID,1003.17,VALID,0,VALID,96.4519,VALID,0,VALID,24.0734,VALID,6,VALID,0.333984,
2010-04-15, 02:44:04,VALID,1003.15,VALID,0,VALID,96.4519,VALID,0,VALID,24.0734,VALID,6,VALID,0.307031,
2010-04-15, 02:45:04,VALID,1003.17,VALID,0,VALID,96.4596,VALID,0,VALID,24.0734,VALID,6,VALID,0.397266,
2010-04-15, 02:46:04,VALID,1003.15,VALID,0,VALID,96.4825,VALID,0,VALID,24.0521,VALID,6,VALID,0.298828,
2010-04-15, 02:47:04,VALID,1003.17,VALID,0,VALID,96.4901,VALID,0,VALID,24.0345,VALID,6,VALID,0.483594,
2010-04-15, 02:48:04,VALID,1003.19,VALID,0,VALID,96.4748,VALID,0,VALID,23.9955,VALID,6,VALID,0.411719,
2010-04-15, 02:49:04,VALID,1003.19,VALID,0,VALID,96.4672,VALID,0,VALID,23.9548,VALID,6,VALID,0.460547,
2010-04-15, 02:50:04,VALID,1003.18,VALID,0,VALID,96.4825,VALID,0,VALID,23.9779,VALID,6,VALID,0.372656,
2010-04-15, 02:51:04,VALID,1003.19,VALID,0,VALID,96.4901,VALID,0,VALID,23.9566,VALID,6,VALID,0.408203,
2010-04-15, 02:52:04,VALID,1003.16,VALID,0,VALID,96.4901,VALID,0,VALID,23.9353,VALID,6,VALID,0.419922,
2010-04-15, 02:53:04,VALID,1003.16,VALID,0,VALID,96.4672,VALID,0,VALID,23.9566,VALID,6,VALID,0.446484,
2010-04-15, 02:54:04,VALID,1003.16,VALID,0,VALID,96.4672,VALID,0,VALID,23.9548,VALID,6,VALID,0.442187,
2010-04-15, 02:55:04,VALID,1003.17,VALID,0,VALID,96.4596,VALID,0,VALID,23.9548,VALID,6,VALID,0.442969,
2010-04-15, 02:56:04,VALID,1003.14,VALID,0,VALID,96.4596,VALID,0,VALID,23.9955,VALID,6,VALID,0.469141,
2010-04-15, 02:57:04,VALID,1003.16,VALID,0,VALID,96.4748,VALID,0,VALID,23.9761,VALID,6,VALID,0.419531,
2010-04-15, 02:58:04,VALID,1003.17,VALID,0,VALID,96.4748,VALID,0,VALID,23.9955,VALID,6,VALID,0.395312,
2010-04-15, 02:59:04,VALID,1003.17,VALID,0,VALID,96.4748,VALID,0,VALID,23.9548,VALID,6,VALID,0.405859,
2010-04-15, 03:00:04,VALID,1003.17,VALID,0,VALID,96.4825,VALID,0,VALID,23.9566,VALID,6,VALID,0.483594,
2010-04-15, 03:01:04,VALID,1003.15,VALID,0,VALID,96.4901,VALID,0,VALID,23.9566,VALID,6,VALID,0.454297,
2010-04-15, 03:02:04,VALID,1003.17,VALID,0,VALID,96.4825,VALID,0,VALID,23.9159,VALID,6,VALID,0.561719,
2010-04-15, 03:03:04,VALID,1003.17,VALID,0,VALID,96.4748,VALID,0,VALID,23.9566,VALID,6,VALID,0.48125,
2010-04-15, 03:04:04,VALID,1003.13,VALID,0,VALID,96.4825,VALID,0,VALID,23.9371,VALID,6,VALID,0.545313,
2010-04-15, 03:05:04,VALID,1003.16,VALID,0,VALID,96.4825,VALID,0,VALID,23.9371,VALID,6,VALID,0.501172,
2010-04-15, 03:06:04,VALID,1003.14,VALID,0,VALID,96.4825,VALID,0,VALID,23.9371,VALID,6,VALID,0.591406,
2010-04-15, 03:07:04,VALID,1003.14,VALID,0,VALID,96.4901,VALID,0,VALID,23.9566,VALID,6,VALID,0.551953,
2010-04-15, 03:08:04,VALID,1003.14,VALID,0,VALID,96.4825,VALID,0,VALID,23.9566,VALID,6,VALID,0.530859,
2010-04-15, 03:09:04,VALID,1003.13,VALID,0,VALID,96.4748,VALID,0,VALID,23.9955,VALID,6,VALID,0.430859,
2010-04-15, 03:10:04,VALID,1003.14,VALID,0,VALID,96.4519,VALID,0,VALID,23.9937,VALID,6,VALID,0.335156,
2010-04-15, 03:11:04,VALID,1003.14,VALID,0,VALID,96.4596,VALID,0,VALID,24.0345,VALID,6,VALID,0.302734,
2010-04-15, 03:12:04,VALID,1003.13,VALID,0,VALID,96.4596,VALID,0,VALID,24.0326,VALID,6,VALID,0.298828,
2010-04-15, 03:13:04,VALID,1003.15,VALID,0,VALID,96.4672,VALID,0,VALID,24.0539,VALID,6,VALID,0.386328,
2010-04-15, 03:14:04,VALID,1003.12,VALID,0,VALID,96.4825,VALID,0,VALID,24.0132,VALID,6,VALID,0.537109,
2010-04-15, 03:15:04,VALID,1003.12,VALID,0,VALID,96.5053,VALID,0.100563,VALID,23.9937,VALID,6,VALID,0.701563,
2010-04-15, 03:16:04,VALID,1003.14,VALID,0,VALID,96.4977,VALID,0,VALID,24.015,VALID,6,VALID,0.625781,
2010-04-15, 03:17:04,VALID,1003.13,VALID,0,VALID,96.4901,VALID,0,VALID,23.9937,VALID,6,VALID,0.618359,
2010-04-15, 03:18:04,VALID,1003.12,VALID,0,VALID,96.4825,VALID,0,VALID,23.9937,VALID,6,VALID,0.594141,
2010-04-15, 03:19:04,VALID,1003.13,VALID,0,VALID,96.4672,VALID,0,VALID,24.015,VALID,6,VALID,0.524609,
2010-04-15, 03:20:04,VALID,1003.13,VALID,0,VALID,96.4901,VALID,0,VALID,23.9761,VALID,6,VALID,0.617188,
2010-04-15, 03:21:04,VALID,1003.12,VALID,0,VALID,96.4977,VALID,0,VALID,23.9955,VALID,6,VALID,0.527344,
2010-04-15, 03:22:04,VALID,1003.14,VALID,0,VALID,96.5053,VALID,0,VALID,23.9548,VALID,6,VALID,0.548828,
2010-04-15, 03:23:04,VALID,1003.11,VALID,0,VALID,96.4977,VALID,0,VALID,23.9955,VALID,6,VALID,0.503906,
2010-04-15, 03:24:04,VALID,1003.12,VALID,0,VALID,96.4901,VALID,0,VALID,23.9973,VALID,6,VALID,0.449219,
2010-04-15, 03:25:04,VALID,1003.12,VALID,0,VALID,96.4901,VALID,0,VALID,23.9955,VALID,6,VALID,0.441016,
2010-04-15, 03:26:04,VALID,1003.11,VALID,0,VALID,96.4748,VALID,0,VALID,24.015,VALID,6,VALID,0.333594,
2010-04-15, 03:27:04,VALID,1003.12,VALID,0,VALID,96.4748,VALID,0,VALID,24.0345,VALID,6,VALID,0.312891,
2010-04-15, 03:28:04,VALID,1003.1,VALID,0,VALID,96.4748,VALID,0,VALID,24.0132,VALID,6,VALID,0.357422,
2010-04-15, 03:29:04,VALID,1003.08,VALID,0,VALID,96.4901,VALID,0,VALID,23.9937,VALID,6,VALID,0.49375,
2010-04-15, 03:30:04,VALID,1003.06,VALID,0,VALID,96.4825,VALID,0,VALID,23.9955,VALID,6,VALID,0.541406,
2010-04-15, 03:31:04,VALID,1003.06,VALID,0,VALID,96.4977,VALID,0,VALID,23.9937,VALID,6,VALID,0.483594,
2010-04-15, 03:32:04,VALID,1003.03,VALID,0,VALID,96.4825,VALID,0,VALID,23.9937,VALID,6,VALID,0.529297,
2010-04-15, 03:33:04,VALID,1003.02,VALID,0,VALID,96.4901,VALID,0,VALID,23.9937,VALID,6,VALID,0.516797,
2010-04-15, 03:34:04,VALID,1003.01,VALID,0,VALID,96.4901,VALID,0,VALID,23.9937,VALID,6,VALID,0.522656,
2010-04-15, 03:35:04,VALID,1003,VALID,0,VALID,96.4748,VALID,0,VALID,24.015,VALID,6,VALID,0.564453,
2010-04-15, 03:36:04,VALID,1003,VALID,0,VALID,96.4825,VALID,0,VALID,24.015,VALID,6,VALID,0.561328,
2010-04-15, 03:37:04,VALID,1003.01,VALID,0,VALID,96.4825,VALID,0,VALID,23.9955,VALID,6,VALID,0.421484,
2010-04-15, 03:38:04,VALID,1002.98,VALID,0,VALID,96.4977,VALID,0,VALID,23.9955,VALID,6,VALID,0.472656,
2010-04-15, 03:39:04,VALID,1002.99,VALID,0,VALID,96.4825,VALID,0,VALID,23.9742,VALID,6,VALID,0.572266,
2010-04-15, 03:40:04,VALID,1002.99,VALID,0,VALID,96.4901,VALID,0,VALID,24.015,VALID,6,VALID,0.636328,
2010-04-15, 03:41:04,VALID,1002.98,VALID,0,VALID,96.4901,VALID,0,VALID,24.015,VALID,6,VALID,0.641406,
2010-04-15, 03:42:04,VALID,1002.99,VALID,0,VALID,96.5053,VALID,0,VALID,24.015,VALID,6,VALID,0.615625,
2010-04-15, 03:43:04,VALID,1002.96,VALID,0,VALID,96.4825,VALID,0,VALID,23.9955,VALID,6,VALID,0.618359,
2010-04-15, 03:44:04,VALID,1002.95,VALID,0,VALID,96.4901,VALID,0,VALID,23.9955,VALID,6,VALID,0.518359,
2010-04-15, 03:45:04,VALID,1002.94,VALID,0,VALID,96.513,VALID,0,VALID,23.9955,VALID,6,VALID,0.447266,
2010-04-15, 03:46:04,VALID,1002.93,VALID,0,VALID,96.5053,VALID,0,VALID,23.9955,VALID,6,VALID,0.465625,
2010-04-15, 03:47:04,VALID,1002.96,VALID,0,VALID,96.5053,VALID,0,VALID,23.9955,VALID,6,VALID,0.484375,
2010-04-15, 03:48:04,VALID,1002.94,VALID,0,VALID,96.5053,VALID,0,VALID,23.9742,VALID,6,VALID,0.346875,
2010-04-15, 03:49:04,VALID,1002.96,VALID,0,VALID,96.513,VALID,0,VALID,23.9548,VALID,6,VALID,0.326953,
2010-04-15, 03:50:04,VALID,1002.95,VALID,0,VALID,96.513,VALID,0,VALID,23.9548,VALID,6,VALID,0.355859,